RYR846 EGBB-EPLL

Flight info

Callsign RYR846
Flight time 2h 2m
Altitude 37000
Route UNGAP P155 SIVDA P137 REDFA L620 TACHA DCT PAM DCT TENLI DCT OSNAD DCT GOVEN DCT ADVAB L980 BADUP DCT UTOLU
Aircraft B38M/M-SDE1FGHILORVWXY/HB1

Departure

Time 2026-04-29 13:06
Airport Birmingham Airport (EGBB)

Arrival

Time 2026-04-29 15:08
Airport Łódź Władysław Reymont Airport (EPLL)
Time Latitude Longitude Altitude Speed Heading
2026-04-29 12:28 52.45354 -1.73630 322 ft 0 kts 146°
2026-04-29 12:54 52.45361 -1.73638 325 ft 4 kts 146°
2026-04-29 12:54 52.45378 -1.73657 321 ft 4 kts 147°
2026-04-29 12:55 52.45402 -1.73678 323 ft 4 kts 160°
2026-04-29 12:55 52.45427 -1.73684 325 ft 4 kts 195°
2026-04-29 12:55 52.45440 -1.73671 322 ft 0 kts 236°
2026-04-29 12:55 52.45431 -1.73692 324 ft 0 kts 236°
2026-04-29 12:59 52.45429 -1.73698 322 ft 2 kts 236°
2026-04-29 13:00 52.45407 -1.73750 324 ft 10 kts 236°
2026-04-29 13:00 52.45350 -1.73888 324 ft 18 kts 236°
2026-04-29 13:00 52.45326 -1.74082 325 ft 19 kts 294°
2026-04-29 13:00 52.45388 -1.74286 324 ft 21 kts 296°
2026-04-29 13:01 52.45454 -1.74503 325 ft 17 kts 296°
2026-04-29 13:01 52.45538 -1.74644 324 ft 19 kts 327°
2026-04-29 13:01 52.45662 -1.74781 317 ft 24 kts 326°
2026-04-29 13:01 52.45816 -1.74952 312 ft 29 kts 324°
2026-04-29 13:02 52.45989 -1.75144 308 ft 31 kts 326°
2026-04-29 13:02 52.46175 -1.75350 306 ft 33 kts 327°
2026-04-29 13:02 52.46316 -1.75507 305 ft 23 kts 326°
2026-04-29 13:02 52.46453 -1.75658 306 ft 25 kts 326°
2026-04-29 13:03 52.46583 -1.75805 308 ft 11 kts 326°
2026-04-29 13:03 52.46632 -1.75880 311 ft 10 kts 288°
2026-04-29 13:03 52.46624 -1.75941 310 ft 1 kts 236°
2026-04-29 13:03 52.46623 -1.75944 310 ft 0 kts 237°
2026-04-29 13:04 52.46602 -1.76000 308 ft 12 kts 237°
2026-04-29 13:05 52.46524 -1.76065 310 ft 3 kts 144°
2026-04-29 13:05 52.46512 -1.76051 312 ft 16 kts 145°
2026-04-29 13:05 52.46185 -1.75686 313 ft 96 kts 146°
2026-04-29 13:05 52.45450 -1.74871 326 ft 159 kts 145°
2026-04-29 13:06 52.44503 -1.73778 801 ft 172 kts 142°
2026-04-29 13:06 52.43536 -1.72775 1976 ft 161 kts 137°
2026-04-29 13:06 52.42598 -1.71744 2937 ft 166 kts 139°
2026-04-29 13:06 52.41579 -1.70794 3896 ft 177 kts 155°
2026-04-29 13:07 52.40374 -1.70388 4898 ft 174 kts 152°
2026-04-29 13:07 52.39485 -1.69099 5353 ft 181 kts 111°
2026-04-29 13:07 52.39282 -1.66935 5795 ft 207 kts 91°
2026-04-29 13:07 52.39317 -1.64462 6431 ft 223 kts 93°
2026-04-29 13:08 52.39288 -1.61921 7346 ft 230 kts 94°
2026-04-29 13:08 52.39245 -1.59220 7896 ft 244 kts 94°
2026-04-29 13:08 52.39191 -1.56362 8410 ft 254 kts 94°
2026-04-29 13:08 52.39136 -1.53474 9182 ft 256 kts 94°
2026-04-29 13:09 52.39076 -1.50575 9836 ft 261 kts 95°
2026-04-29 13:09 52.39011 -1.47588 10527 ft 263 kts 94°
2026-04-29 13:09 52.38942 -1.44512 10877 ft 280 kts 94°
2026-04-29 13:09 52.38862 -1.41214 11141 ft 299 kts 95°
2026-04-29 13:10 52.38775 -1.37693 11318 ft 319 kts 95°
2026-04-29 13:10 52.38679 -1.33993 11560 ft 334 kts 94°
2026-04-29 13:10 52.38584 -1.30171 12198 ft 336 kts 94°
2026-04-29 13:10 52.38495 -1.26321 12787 ft 341 kts 94°
2026-04-29 13:11 52.38405 -1.22426 13480 ft 344 kts 94°
2026-04-29 13:11 52.38315 -1.18500 14169 ft 346 kts 94°
2026-04-29 13:11 52.38224 -1.14535 14755 ft 350 kts 94°
2026-04-29 13:11 52.38130 -1.10536 15386 ft 353 kts 94°
2026-04-29 13:12 52.38034 -1.06509 16034 ft 355 kts 94°
2026-04-29 13:12 52.37936 -1.02455 16662 ft 358 kts 94°
2026-04-29 13:12 52.37836 -0.98371 17274 ft 361 kts 93°
2026-04-29 13:12 52.37735 -0.94238 17790 ft 366 kts 93°
2026-04-29 13:13 52.37630 -0.90066 18359 ft 369 kts 93°
2026-04-29 13:13 52.37523 -0.85855 18874 ft 372 kts 94°
2026-04-29 13:13 52.37413 -0.81602 19359 ft 375 kts 94°
2026-04-29 13:13 52.37302 -0.77315 19847 ft 378 kts 94°
2026-04-29 13:14 52.37187 -0.72999 20323 ft 381 kts 94°
2026-04-29 13:14 52.37071 -0.68650 20806 ft 384 kts 94°
2026-04-29 13:14 52.36952 -0.64272 21278 ft 387 kts 95°
2026-04-29 13:14 52.36831 -0.59869 21748 ft 390 kts 95°
2026-04-29 13:15 52.36709 -0.55475 22212 ft 393 kts 95°
2026-04-29 13:15 52.36583 -0.51003 22686 ft 396 kts 95°
2026-04-29 13:15 52.36454 -0.46492 23162 ft 399 kts 95°
2026-04-29 13:15 52.36322 -0.41943 23629 ft 402 kts 95°
2026-04-29 13:16 52.36188 -0.37369 24074 ft 404 kts 96°
2026-04-29 13:16 52.36052 -0.32760 24469 ft 407 kts 96°
2026-04-29 13:16 52.35912 -0.28123 24894 ft 409 kts 96°
2026-04-29 13:16 52.35791 -0.23457 25298 ft 412 kts 94°
2026-04-29 13:17 52.35768 -0.18751 25715 ft 414 kts 94°
2026-04-29 13:17 52.35739 -0.14041 26122 ft 416 kts 94°
2026-04-29 13:17 52.35702 -0.09309 26520 ft 418 kts 94°
2026-04-29 13:17 52.35660 -0.04538 26913 ft 420 kts 94°
2026-04-29 13:18 52.35360 0.00194 27275 ft 419 kts 103°
2026-04-29 13:18 52.34863 0.04916 27479 ft 426 kts 101°
2026-04-29 13:18 52.34436 0.09718 27889 ft 427 kts 100°
2026-04-29 13:18 52.34017 0.14531 28245 ft 429 kts 100°
2026-04-29 13:19 52.33599 0.19379 28603 ft 431 kts 100°
2026-04-29 13:19 52.33179 0.24243 28967 ft 433 kts 100°
2026-04-29 13:19 52.32754 0.29128 29312 ft 435 kts 100°
2026-04-29 13:19 52.32327 0.34015 29782 ft 434 kts 101°
2026-04-29 13:20 52.31898 0.38896 30313 ft 432 kts 101°
2026-04-29 13:20 52.31470 0.43747 30754 ft 430 kts 101°
2026-04-29 13:20 52.31042 0.48570 31182 ft 429 kts 101°
2026-04-29 13:20 52.30612 0.53385 31585 ft 428 kts 100°
2026-04-29 13:21 52.30182 0.58197 31954 ft 427 kts 100°
2026-04-29 13:21 52.29751 0.62986 32368 ft 425 kts 100°
2026-04-29 13:21 52.29319 0.67761 32799 ft 424 kts 100°
2026-04-29 13:21 52.28889 0.72505 33225 ft 422 kts 100°
2026-04-29 13:22 52.28457 0.77242 33629 ft 421 kts 100°
2026-04-29 13:22 52.28024 0.81960 34048 ft 419 kts 101°
2026-04-29 13:22 52.27590 0.86667 34389 ft 419 kts 101°
2026-04-29 13:22 52.27156 0.91367 34695 ft 418 kts 101°
2026-04-29 13:23 52.26719 0.96066 34997 ft 418 kts 100°
2026-04-29 13:23 52.26282 1.00747 35281 ft 418 kts 100°
2026-04-29 13:23 52.25842 1.05443 35498 ft 419 kts 100°
2026-04-29 13:23 52.25400 1.10147 35768 ft 419 kts 100°
2026-04-29 13:24 52.24957 1.14831 36053 ft 418 kts 100°
2026-04-29 13:24 52.24511 1.19524 36325 ft 418 kts 100°
2026-04-29 13:24 52.24064 1.24209 36594 ft 418 kts 100°
2026-04-29 13:24 52.23621 1.28830 36847 ft 417 kts 100°
2026-04-29 13:25 52.23166 1.33563 37102 ft 417 kts 100°
2026-04-29 13:25 52.22260 1.42916 37373 ft 418 kts 100°
2026-04-29 13:25 52.21812 1.47518 37350 ft 416 kts 100°
2026-04-29 13:26 52.20899 1.56827 37354 ft 418 kts 100°
2026-04-29 13:26 52.19971 1.66203 37352 ft 418 kts 100°
2026-04-29 13:27 52.19039 1.75548 37355 ft 418 kts 100°
2026-04-29 13:27 52.18098 1.84904 37352 ft 418 kts 100°
2026-04-29 13:28 52.17151 1.94244 37344 ft 418 kts 100°
2026-04-29 13:28 52.16193 2.03604 37336 ft 420 kts 99°
2026-04-29 13:29 52.15228 2.12979 37338 ft 420 kts 100°
2026-04-29 13:29 52.14254 2.22348 37338 ft 420 kts 100°
2026-04-29 13:30 52.13274 2.31706 37338 ft 420 kts 100°
2026-04-29 13:30 52.12284 2.41074 37333 ft 420 kts 100°
2026-04-29 13:31 52.11813 2.48910 37305 ft 419 kts 84°
2026-04-29 13:31 52.12473 2.53522 37355 ft 420 kts 73°
2026-04-29 13:31 52.13342 2.58075 37316 ft 423 kts 75°
2026-04-29 13:32 52.15063 2.67215 37333 ft 422 kts 75°
2026-04-29 13:32 52.16776 2.76344 37335 ft 422 kts 75°
2026-04-29 13:33 52.18486 2.85503 37336 ft 422 kts 75°
2026-04-29 13:33 52.20177 2.94600 37336 ft 422 kts 75°
2026-04-29 13:34 52.21880 3.03814 37328 ft 421 kts 74°
2026-04-29 13:34 52.23547 3.12873 37331 ft 421 kts 74°
2026-04-29 13:35 52.25219 3.22006 37332 ft 419 kts 75°
2026-04-29 13:35 52.25684 3.26670 37332 ft 416 kts 87°
2026-04-29 13:35 52.25889 3.31386 37320 ft 418 kts 84°
2026-04-29 13:36 52.26423 3.40843 37329 ft 419 kts 85°
2026-04-29 13:36 52.26898 3.50312 37338 ft 418 kts 85°
2026-04-29 13:37 52.27351 3.59767 37334 ft 418 kts 85°
2026-04-29 13:37 52.27795 3.69229 37332 ft 418 kts 85°
2026-04-29 13:38 52.28232 3.78711 37332 ft 418 kts 85°
2026-04-29 13:38 52.28661 3.88183 37332 ft 418 kts 85°
2026-04-29 13:39 52.29082 3.97649 37349 ft 418 kts 85°
2026-04-29 13:39 52.29496 4.07110 37332 ft 417 kts 85°
2026-04-29 13:40 52.29902 4.16569 37328 ft 417 kts 85°
2026-04-29 13:40 52.30300 4.26035 37327 ft 417 kts 85°
2026-04-29 13:41 52.30691 4.35498 37333 ft 418 kts 85°
2026-04-29 13:41 52.31074 4.44968 37333 ft 418 kts 85°
2026-04-29 13:42 52.31449 4.54436 37333 ft 418 kts 85°
2026-04-29 13:42 52.31818 4.63911 37327 ft 418 kts 85°
2026-04-29 13:43 52.32176 4.73322 37346 ft 418 kts 85°
2026-04-29 13:43 52.32530 4.82847 37346 ft 418 kts 85°
2026-04-29 13:44 52.32874 4.92257 37347 ft 418 kts 85°
2026-04-29 13:44 52.33213 5.01732 37340 ft 417 kts 85°
2026-04-29 13:45 52.33545 5.11193 37333 ft 417 kts 91°
2026-04-29 13:45 52.32589 5.20560 37331 ft 418 kts 93°
2026-04-29 13:46 52.31959 5.30046 37366 ft 421 kts 94°
2026-04-29 13:46 52.31274 5.39527 37373 ft 420 kts 94°
2026-04-29 13:47 52.30570 5.49005 37372 ft 420 kts 94°
2026-04-29 13:47 52.29860 5.58471 37376 ft 421 kts 94°
2026-04-29 13:48 52.29140 5.67962 37355 ft 421 kts 94°
2026-04-29 13:48 52.28899 5.71113 37350 ft 421 kts 94°
2026-04-29 13:51 52.27991 5.82894 37358 ft 422 kts 94°
2026-04-29 13:51 52.27248 5.92416 37353 ft 421 kts 94°
2026-04-29 13:52 52.26501 6.01884 37350 ft 422 kts 94°
2026-04-29 13:52 52.25745 6.11372 37349 ft 422 kts 94°
2026-04-29 13:53 52.24983 6.20865 37349 ft 422 kts 94°
2026-04-29 13:53 52.24574 6.30366 37388 ft 419 kts 89°
2026-04-29 13:54 52.24425 6.39863 37345 ft 419 kts 88°
2026-04-29 13:54 52.24274 6.49379 37358 ft 420 kts 88°
2026-04-29 13:55 52.24115 6.58896 37353 ft 420 kts 88°
2026-04-29 13:55 52.23950 6.68417 37355 ft 420 kts 88°
2026-04-29 13:56 52.23776 6.77935 37355 ft 420 kts 88°
2026-04-29 13:56 52.23595 6.87462 37357 ft 420 kts 89°
2026-04-29 13:57 52.23406 6.96996 37369 ft 421 kts 88°
2026-04-29 13:57 52.23209 7.06542 37356 ft 422 kts 88°
2026-04-29 13:58 52.23004 7.16098 37357 ft 422 kts 88°
2026-04-29 13:58 52.22791 7.25646 37358 ft 422 kts 89°
2026-04-29 13:59 52.22572 7.35150 37359 ft 422 kts 89°
2026-04-29 13:59 52.22342 7.44768 37375 ft 422 kts 88°
2026-04-29 14:00 52.22108 7.54273 37372 ft 423 kts 88°
2026-04-29 14:00 52.21864 7.63842 37373 ft 423 kts 89°
2026-04-29 14:01 52.21612 7.73411 37375 ft 423 kts 89°
2026-04-29 14:01 52.21352 7.82993 37373 ft 423 kts 89°
2026-04-29 14:02 52.21085 7.92570 37399 ft 423 kts 89°
2026-04-29 14:02 52.20809 8.02148 37375 ft 424 kts 89°
2026-04-29 14:03 52.20526 8.11766 37372 ft 424 kts 89°
2026-04-29 14:03 52.20237 8.21366 37367 ft 424 kts 89°
2026-04-29 14:04 52.20073 8.30969 37378 ft 422 kts 85°
2026-04-29 14:04 52.20157 8.40530 37409 ft 422 kts 85°
2026-04-29 14:05 52.20200 8.50135 37380 ft 424 kts 85°
2026-04-29 14:05 52.20230 8.59754 37385 ft 425 kts 85°
2026-04-29 14:06 52.20251 8.69380 37388 ft 425 kts 86°
2026-04-29 14:06 52.20266 8.78991 37392 ft 423 kts 85°
2026-04-29 14:07 52.20272 8.88569 37396 ft 423 kts 85°
2026-04-29 14:07 52.20271 8.98168 37404 ft 424 kts 85°
2026-04-29 14:08 52.20262 9.07724 37402 ft 424 kts 85°
2026-04-29 14:08 52.20245 9.17342 37400 ft 424 kts 85°
2026-04-29 14:09 52.20217 9.26959 37414 ft 425 kts 86°
2026-04-29 14:09 52.20187 9.36595 37401 ft 425 kts 86°
2026-04-29 14:10 52.20147 9.46224 37407 ft 425 kts 86°
2026-04-29 14:10 52.20098 9.55842 37417 ft 425 kts 86°
2026-04-29 14:11 52.20042 9.65470 37413 ft 425 kts 86°
2026-04-29 14:11 52.19979 9.75099 37415 ft 425 kts 86°
2026-04-29 14:12 52.19907 9.84730 37412 ft 425 kts 86°
2026-04-29 14:12 52.19827 9.94360 37423 ft 426 kts 86°
2026-04-29 14:13 52.19740 10.03961 37413 ft 426 kts 86°
2026-04-29 14:13 52.19644 10.13624 37408 ft 426 kts 86°
2026-04-29 14:14 52.19540 10.23296 37407 ft 427 kts 86°
2026-04-29 14:14 52.19429 10.32975 37417 ft 427 kts 86°
2026-04-29 14:15 52.19309 10.42647 37447 ft 427 kts 86°
2026-04-29 14:15 52.19181 10.52335 37426 ft 428 kts 86°
2026-04-29 14:16 52.19046 10.62033 37424 ft 428 kts 86°
2026-04-29 14:16 52.18902 10.71735 37423 ft 428 kts 86°
2026-04-29 14:17 52.18750 10.81439 37423 ft 428 kts 86°
2026-04-29 14:17 52.18590 10.91140 37459 ft 429 kts 87°
2026-04-29 14:18 52.18422 11.00874 37418 ft 430 kts 87°
2026-04-29 14:18 52.18246 11.10627 37421 ft 431 kts 87°
2026-04-29 14:19 52.18061 11.20377 37424 ft 431 kts 87°
2026-04-29 14:19 52.17868 11.30125 37425 ft 431 kts 87°
2026-04-29 14:20 52.17667 11.39900 37457 ft 431 kts 87°
2026-04-29 14:20 52.17458 11.49676 37430 ft 433 kts 87°
2026-04-29 14:21 52.17240 11.59478 37422 ft 433 kts 87°
2026-04-29 14:21 52.17014 11.69254 37428 ft 433 kts 87°
2026-04-29 14:22 52.16781 11.78999 37428 ft 433 kts 88°
2026-04-29 14:22 52.16538 11.88805 37433 ft 433 kts 87°
2026-04-29 14:23 52.16288 11.98609 37435 ft 433 kts 87°
2026-04-29 14:23 52.16030 12.08397 37433 ft 433 kts 87°
2026-04-29 14:24 52.15763 12.18201 37433 ft 433 kts 88°
2026-04-29 14:24 52.15488 12.28003 37426 ft 433 kts 88°
2026-04-29 14:25 52.15204 12.37807 37432 ft 433 kts 88°
2026-04-29 14:25 52.14912 12.47636 37434 ft 435 kts 88°
2026-04-29 14:26 52.14663 12.55801 37435 ft 435 kts 88°
2026-04-29 14:26 52.14356 12.65634 37432 ft 435 kts 88°
2026-04-29 14:27 52.14040 12.75472 37436 ft 435 kts 88°
2026-04-29 14:28 52.13551 12.90226 37464 ft 436 kts 88°
2026-04-29 14:28 52.13213 13.00127 37434 ft 439 kts 88°
2026-04-29 14:29 52.12865 13.10065 37435 ft 439 kts 88°
2026-04-29 14:29 52.12508 13.19997 37444 ft 440 kts 88°
2026-04-29 14:30 52.12144 13.29913 37444 ft 440 kts 88°
2026-04-29 14:30 52.11773 13.39793 37477 ft 440 kts 88°
2026-04-29 14:31 52.11390 13.49779 37454 ft 443 kts 88°
2026-04-29 14:31 52.10997 13.59772 37449 ft 443 kts 88°
2026-04-29 14:32 52.10597 13.69752 37442 ft 443 kts 88°
2026-04-29 14:32 52.10187 13.79749 37443 ft 443 kts 88°
2026-04-29 14:33 52.09769 13.89740 37472 ft 444 kts 88°
2026-04-29 14:33 52.09340 13.99802 37441 ft 447 kts 88°
2026-04-29 14:34 52.08901 14.09879 37437 ft 447 kts 89°
2026-04-29 14:34 52.08457 14.19943 37439 ft 447 kts 89°
2026-04-29 14:35 52.08005 14.30021 37441 ft 447 kts 89°
2026-04-29 14:35 52.07544 14.40097 37437 ft 447 kts 89°
2026-04-29 14:36 52.07075 14.50174 37443 ft 447 kts 89°
2026-04-29 14:36 52.06598 14.60249 37445 ft 447 kts 89°
2026-04-29 14:37 52.06113 14.70327 37443 ft 447 kts 89°
2026-04-29 14:37 52.06045 14.80331 37474 ft 439 kts 81°
2026-04-29 14:38 52.06482 14.90267 37450 ft 442 kts 81°
2026-04-29 14:38 52.06915 15.00230 37438 ft 442 kts 81°
2026-04-29 14:39 52.07339 15.10210 37443 ft 443 kts 81°
2026-04-29 14:39 52.07755 15.20186 37441 ft 443 kts 81°
2026-04-29 14:40 52.08162 15.30172 37439 ft 443 kts 81°
2026-04-29 14:40 52.08561 15.40157 37489 ft 443 kts 81°
2026-04-29 14:41 52.08955 15.50195 37453 ft 445 kts 81°
2026-04-29 14:41 52.09337 15.60174 37455 ft 445 kts 81°
2026-04-29 14:42 52.09713 15.70225 37455 ft 445 kts 81°
2026-04-29 14:42 52.10080 15.80270 37452 ft 445 kts 81°
2026-04-29 14:43 52.10439 15.90333 37455 ft 445 kts 81°
2026-04-29 14:43 52.10790 16.00415 37444 ft 447 kts 81°
2026-04-29 14:44 52.11133 16.10524 37442 ft 447 kts 81°
2026-04-29 14:44 52.11467 16.20622 37436 ft 447 kts 81°
2026-04-29 14:45 52.11793 16.30734 37443 ft 447 kts 81°
2026-04-29 14:45 52.12109 16.40802 37430 ft 445 kts 82°
2026-04-29 14:46 52.12417 16.50885 37440 ft 446 kts 82°
2026-04-29 14:46 52.12718 16.60951 37438 ft 446 kts 82°
2026-04-29 14:47 52.13003 16.70994 37432 ft 447 kts 84°
2026-04-29 14:47 52.12690 16.76060 37435 ft 455 kts 95°
2026-04-29 14:47 52.12162 16.81113 36988 ft 451 kts 93°
2026-04-29 14:47 52.11683 16.86179 36105 ft 455 kts 93°
2026-04-29 14:48 52.11184 16.91243 35609 ft 449 kts 93°
2026-04-29 14:48 52.10681 16.96234 34939 ft 450 kts 94°
2026-04-29 14:48 52.10168 17.01280 34062 ft 453 kts 94°
2026-04-29 14:48 52.09652 17.06297 33468 ft 446 kts 93°
2026-04-29 14:49 52.09138 17.11291 32601 ft 446 kts 93°
2026-04-29 14:49 52.08627 17.16218 32042 ft 439 kts 93°
2026-04-29 14:49 52.08120 17.21096 31450 ft 435 kts 93°
2026-04-29 14:49 52.07618 17.25918 30788 ft 431 kts 92°
2026-04-29 14:50 52.07118 17.30674 29674 ft 424 kts 92°
2026-04-29 14:50 52.06624 17.35382 28196 ft 424 kts 93°
2026-04-29 14:50 52.06127 17.40096 27055 ft 419 kts 93°
2026-04-29 14:50 52.05640 17.44677 26425 ft 408 kts 94°
2026-04-29 14:51 52.05153 17.49291 25779 ft 422 kts 94°
2026-04-29 14:51 52.04650 17.54020 25105 ft 427 kts 95°
2026-04-29 14:51 52.04141 17.58784 24459 ft 428 kts 95°
2026-04-29 14:51 52.03629 17.63545 23756 ft 425 kts 95°
2026-04-29 14:52 52.03123 17.68239 23003 ft 419 kts 95°
2026-04-29 14:52 52.02623 17.72861 22349 ft 413 kts 95°
2026-04-29 14:52 52.02129 17.77408 21711 ft 407 kts 95°
2026-04-29 14:52 52.01644 17.81854 21083 ft 402 kts 96°
2026-04-29 14:53 52.01159 17.86292 20468 ft 397 kts 96°
2026-04-29 14:53 52.00675 17.90698 19879 ft 393 kts 96°
2026-04-29 14:53 52.00195 17.95048 19254 ft 390 kts 96°
2026-04-29 14:53 51.99719 17.99358 18632 ft 386 kts 96°
2026-04-29 14:54 51.99245 18.03624 17969 ft 383 kts 97°
2026-04-29 14:54 51.98775 18.07850 17357 ft 378 kts 97°
2026-04-29 14:54 51.98309 18.12022 16778 ft 374 kts 97°
2026-04-29 14:54 51.97846 18.16149 16206 ft 371 kts 97°
2026-04-29 14:55 51.97384 18.20256 15628 ft 368 kts 97°
2026-04-29 14:55 51.96921 18.24366 15067 ft 373 kts 97°
2026-04-29 14:55 51.96449 18.28527 14493 ft 377 kts 97°
2026-04-29 14:55 51.95974 18.32707 13887 ft 377 kts 97°
2026-04-29 14:56 51.95499 18.36873 13279 ft 374 kts 98°
2026-04-29 14:56 51.95026 18.41009 12737 ft 373 kts 98°
2026-04-29 14:56 51.94557 18.45101 12356 ft 366 kts 98°
2026-04-29 14:56 51.94097 18.49095 12175 ft 354 kts 98°
2026-04-29 14:57 51.93652 18.52940 11998 ft 342 kts 98°
2026-04-29 14:57 51.93222 18.56649 11815 ft 331 kts 97°
2026-04-29 14:57 51.92803 18.60257 11652 ft 320 kts 97°
2026-04-29 14:57 51.92397 18.63745 11472 ft 310 kts 97°
2026-04-29 14:58 51.92002 18.67122 11327 ft 300 kts 97°
2026-04-29 14:58 51.91619 18.70395 11181 ft 291 kts 97°
2026-04-29 14:58 51.91252 18.73526 11041 ft 282 kts 97°
2026-04-29 14:58 51.90891 18.76597 10904 ft 273 kts 97°
2026-04-29 14:59 51.90541 18.79569 10773 ft 264 kts 97°
2026-04-29 14:59 51.90202 18.82450 10648 ft 256 kts 97°
2026-04-29 14:59 51.89873 18.85230 10535 ft 248 kts 96°
2026-04-29 14:59 51.89443 18.87986 10224 ft 260 kts 105°
2026-04-29 15:00 51.88817 18.90824 9455 ft 276 kts 105°
2026-04-29 15:00 51.88181 18.93777 8787 ft 278 kts 105°
2026-04-29 15:00 51.87555 18.96729 8198 ft 277 kts 105°
2026-04-29 15:00 51.86938 18.99668 7659 ft 274 kts 105°
2026-04-29 15:01 51.86335 19.02558 7267 ft 267 kts 105°
2026-04-29 15:01 51.85727 19.05365 6851 ft 262 kts 111°
2026-04-29 15:01 51.84592 19.07679 6309 ft 269 kts 141°
2026-04-29 15:01 51.82899 19.08985 5775 ft 272 kts 160°
2026-04-29 15:02 51.81117 19.10004 5248 ft 271 kts 158°
2026-04-29 15:02 51.79352 19.11032 4827 ft 267 kts 158°
2026-04-29 15:02 51.77626 19.12000 4510 ft 258 kts 164°
2026-04-29 15:02 51.75874 19.12357 4230 ft 251 kts 176°
2026-04-29 15:03 51.74162 19.12535 3975 ft 241 kts 174°
2026-04-29 15:03 51.72565 19.13102 3687 ft 231 kts 158°
2026-04-29 15:03 51.71071 19.13982 3479 ft 229 kts 157°
2026-04-29 15:03 51.69565 19.14867 3252 ft 231 kts 158°
2026-04-29 15:04 51.68225 19.16188 2977 ft 222 kts 125°
2026-04-29 15:04 51.67742 19.18357 2727 ft 199 kts 83°
2026-04-29 15:04 51.68029 19.20396 2572 ft 183 kts 68°
2026-04-29 15:04 51.68411 19.22295 2417 ft 169 kts 68°
2026-04-29 15:05 51.68768 19.24018 2257 ft 155 kts 66°
2026-04-29 15:05 51.68980 19.25099 2096 ft 150 kts 68°
2026-04-29 15:05 51.69325 19.27113 1983 ft 128 kts 67°
2026-04-29 15:05 51.69630 19.28580 1868 ft 146 kts 62°
2026-04-29 15:06 51.70039 19.30124 1720 ft 150 kts 63°
2026-04-29 15:06 51.70380 19.31641 1447 ft 140 kts 67°
2026-04-29 15:06 51.70699 19.33139 1154 ft 152 kts 64°
2026-04-29 15:06 51.71057 19.34747 999 ft 146 kts 67°
2026-04-29 15:07 51.71390 19.36236 764 ft 149 kts 66°
2026-04-29 15:07 51.71743 19.37804 601 ft 140 kts 67°
2026-04-29 15:07 51.72020 19.39031 592 ft 82 kts 71°
2026-04-29 15:07 51.72161 19.39695 596 ft 59 kts 71°
2026-04-29 15:08 51.72293 19.40297 616 ft 55 kts 67°
2026-04-29 15:08 51.72359 19.40572 619 ft 13 kts 47°
2026-04-29 15:08 51.72438 19.40571 617 ft 12 kts 333°
2026-04-29 15:08 51.72513 19.40520 623 ft 10 kts 326°
2026-04-29 15:09 51.72549 19.40465 617 ft 0 kts 314°
2026-04-29 15:09 51.72555 19.40453 617 ft 3 kts 309°
2026-04-29 15:09 51.72577 19.40407 617 ft 9 kts 303°
2026-04-29 15:09 51.72586 19.40270 617 ft 16 kts 261°
2026-04-29 15:10 51.72552 19.40090 621 ft 14 kts 252°
2026-04-29 15:10 51.72539 19.40028 623 ft 0 kts 252°
2026-04-29 15:10 51.72539 19.40010 617 ft 2 kts 282°
2026-04-29 15:10 51.72547 19.39997 617 ft 4 kts 320°
2026-04-29 15:11 51.72581 19.39980 625 ft 3 kts 342°